Theta_e
321 312 312 311 300 298 295 300 303 303 305 308 310 308 309 311 309 302 326 333 333 336 341 345 346 348 348 348 347 345 343 340 339 338 338 339 338 337 337 336 341 342 341 341 339 338 337 337 336
312 312 311 305 296 292 293 298 301 304 311 314 314 314 313 310 321 323 327 333 335 338 340 343 344 347 348 347 346 345 342 343 342 339 339 339 339 338 338 337 339 341 338 339 338 337 336 337 336
313 311 306 300 295 293 295 300 302 308 312 310 313 316 314 312 322 325 330 333 336 338 339 342 343 347 347 347 346 344 343 343 343 342 340 339 338 337 336 336 339 341 338 339 337 337 336 336 335
311 310 304 297 297 300 299 303 306 309 311 311 314 311 317 324 325 328 332 335 336 336 337 342 344 347 347 346 345 344 344 341 344 343 340 339 336 334 335 336 338 339 338 339 338 336 335 335 334
309 305 297 297 298 300 301 306 307 307 308 310 312 309 314 323 328 330 332 334 334 333 335 342 343 345 346 346 345 344 343 338 346 343 340 337 335 334 334 335 337 338 337 336 337 337 335 334 334
304 304 296 293 297 299 301 307 307 307 308 311 312 311 314 323 326 330 332 333 334 332 334 340 337 340 342 343 343 343 342 338 340 341 338 337 334 334 334 334 335 336 336 335 336 336 335 333 332
301 300 296 297 297 300 300 307 307 307 307 310 315 309 315 321 326 330 331 332 332 332 333 337 340 339 335 338 338 339 339 337 338 340 338 337 335 332 335 335 334 335 334 334 334 335 334 333 331
304 301 297 298 297 299 301 301 305 308 307 317 318 308 308 320 325 328 329 330 330 330 332 333 336 338 339 339 332 333 334 334 333 335 333 331 330 332 331 330 334 334 334 333 332 332 333 333 330
312 300 296 298 299 301 302 300 303 308 309 313 317 315 317 322 324 325 325 326 329 328 330 331 333 335 335 335 331 330 330 330 330 330 327 326 329 331 330 327 330 333 332 332 330 329 328 329 328
306 301 299 303 302 302 303 301 302 302 304 309 313 319 320 322 323 321 321 321 324 325 326 329 330 332 332 333 332 334 333 333 332 331 331 329 329 329 328 325 326 327 327 329 328 326 322 320 323
306 301 305 305 307 306 306 304 302 301 300 307 309 313 318 319 321 321 320 321 322 326 327 327 328 330 331 331 331 331 332 331 330 329 328 328 327 326 328 327 327 326 320 324 322 321 321 320 321
301 305 306 309 310 307 305 306 301 301 304 306 306 311 318 318 319 321 320 320 322 325 326 327 328 328 329 330 329 330 329 329 328 327 326 325 324 324 325 326 325 323 322 321 320 321 320 320 319
303 304 307 309 307 307 307 305 305 301 305 305 303 315 317 319 320 322 323 323 323 323 325 326 327 328 329 328 329 329 328 327 327 326 325 325 323 322 322 323 322 321 319 319 319 320 320 319 319
305 305 305 307 307 306 304 304 303 304 304 302 307 312 316 318 320 320 320 321 321 324 324 326 326 327 329 328 328 327 327 327 327 325 325 324 323 322 321 320 319 318 318 318 319 320 320 319 319
306 302 304 304 306 305 307 301 300 309 305 301 300 307 316 317 319 320 321 321 322 323 325 325 326 326 327 328 327 326 327 327 326 326 324 324 323 323 322 320 318 318 317 318 319 318 319 318 318
304 303 298 302 305 306 304 297 304 308 300 300 300 301 310 317 318 321 323 323 323 323 322 325 326 326 326 327 327 325 326 325 326 325 325 324 324 324 323 321 320 319 318 318 319 318 317 318 317
300 293 296 299 306 305 302 297 304 308 305 304 302 299 302 311 318 320 321 324 324 324 323 323 325 325 326 326 326 327 326 326 326 326 325 324 324 324 324 323 323 321 319 319 319 318 317 317 317
291 293 294 294 300 303 299 299 304 307 305 301 300 300 298 304 311 318 322 321 325 325 325 324 324 325 325 326 326 325 325 326 326 326 326 325 324 323 323 323 322 321 320 319 318 318 316 317 317
295 295 294 297 301 301 299 299 301 305 306 305 306 303 303 301 307 313 321 323 321 324 325 324 323 324 323 323 322 322 321 322 323 325 325 325 325 323 323 323 322 320 320 320 318 317 316 315 315
296 294 293 296 301 301 298 297 301 303 305 306 307 307 305 304 302 304 317 322 323 321 324 325 325 325 324 323 323 323 323 323 324 325 325 325 324 324 324 323 322 320 320 318 317 315 314 315 315
294 294 294 295 298 300 298 295 297 301 304 306 308 309 310 307 307 307 303 317 322 323 321 324 325 325 325 325 325 323 323 321 322 323 323 323 324 324 324 324 324 321 321 319 318 316 315 315 314
291 296 295 294 293 288 296 285 292 296 299 302 305 307 308 309 311 311 307 307 317 322 325 324 326 325 325 326 324 323 322 321 323 324 325 324 324 324 323 324 323 322 320 320 319 317 318 317 315
294 299 296 295 292 291 291 288 290 296 296 299 302 306 308 310 310 311 311 308 312 317 321 324 324 325 325 325 326 324 323 324 325 325 324 325 324 324 323 324 322 321 320 321 320 317 317 317 318
300 297 296 295 293 285 289 289 289 292 296 298 302 305 306 308 310 310 311 309 307 311 318 322 323 323 325 324 325 324 323 324 323 323 323 324 324 323 323 323 323 322 321 320 320 319 318 318 317
297 293 284 282 283 282 289 288 291 295 298 298 300 303 304 306 308 309 308 306 307 304 314 318 321 321 323 323 324 325 324 324 324 323 323 323 322 322 323 323 321 322 321 321 321 319 319 318 317
294 293 285 279 278 280 286 284 288 297 300 302 301 301 302 300 301 302 304 307 308 305 308 316 318 320 321 322 323 324 325 325 324 324 324 323 323 323 325 324 322 322 321 321 320 320 319 319 318
290 289 294 287 279 279 283 286 291 294 295 296 297 298 298 300 303 301 302 301 303 303 303 311 316 318 320 321 322 323 324 324 323 324 324 323 324 323 323 323 323 322 321 320 320 319 318 317 317
293 295 287 287 280 277 281 282 286 291 294 296 296 296 297 297 297 298 300 300 301 301 303 308 313 316 318 320 321 322 322 323 324 323 322 322 323 322 321 321 322 322 321 320 319 319 319 317 317
292 290 291 290 286 281 275 281 288 292 293 294 293 293 293 292 293 294 296 298 297 297 299 305 310 313 316 318 320 320 321 322 323 322 322 321 322 321 320 320 321 320 319 320 319 318 318 316 316
295 291 291 286 281 284 280 284 290 290 292 291 292 292 292 291 291 291 292 293 293 295 296 302 308 312 315 317 318 319 320 321 321 321 321 321 321 320 320 320 320 319 319 319 319 318 317 316 316
Wind_Speed
6 4 3 5 5 5 2 0 1 3 3 2 4 5 4 1 4 2 1 9 6 11 8 7 8 11 13 12 14 14 10 11 12 13 14 14 14 14 15 15 12 15 16 16 17 17 17 18 19
3 4 5 3 5 3 4 2 3 2 2 6 5 2 1 2 1 3 7 6 10 10 8 7 9 12 13 13 11 13 11 10 14 13 14 13 14 13 14 14 10 14 15 14 16 16 17 17 18
3 5 5 5 3 2 2 2 2 1 4 1 3 1 3 2 0 7 2 11 10 10 7 7 10 13 13 13 12 12 13 10 10 16 14 13 13 13 12 13 11 14 14 13 15 16 16 17 16
5 5 4 4 1 2 2 1 4 5 3 0 1 1 2 2 2 5 10 13 11 9 8 8 10 13 14 13 12 12 11 9 10 16 15 13 12 12 11 12 11 13 13 14 13 15 15 15 15
5 3 4 3 2 4 3 2 7 4 1 1 1 1 2 1 3 8 12 12 13 9 7 8 9 12 13 13 12 10 11 10 12 15 15 13 12 12 11 11 11 12 13 12 12 13 13 14 14
5 2 4 1 2 5 3 3 4 2 1 2 1 2 2 1 6 9 11 12 11 11 8 7 8 10 11 12 11 10 9 11 9 14 13 12 11 12 10 11 10 11 11 12 11 11 13 13 12
7 4 3 2 2 4 5 3 1 3 2 4 4 2 1 2 5 9 9 8 9 9 9 7 7 9 10 9 9 9 9 10 11 13 11 10 10 10 9 8 10 10 10 11 11 10 11 11 11
3 5 3 2 1 1 5 7 3 2 2 2 3 3 3 4 9 8 7 7 8 7 8 9 7 7 8 8 8 8 8 10 11 9 10 8 8 10 9 6 8 10 10 10 10 10 9 10 10
2 4 4 5 3 4 4 7 5 2 2 2 3 2 2 7 13 8 6 7 7 6 7 7 8 8 7 7 6 8 6 8 8 8 9 7 5 7 7 6 7 8 8 9 10 10 10 9 9
3 4 11 8 8 5 1 3 4 5 7 4 4 2 5 8 13 13 12 13 13 13 9 8 9 9 8 6 7 6 6 6 6 6 7 5 5 5 5 5 7 8 8 8 10 10 9 5 3
4 5 2 5 4 6 5 1 3 1 5 6 6 3 4 7 11 13 12 12 14 13 10 10 9 9 9 7 6 4 4 4 5 7 6 5 4 3 3 3 3 3 4 3 4 4 3 4 3
3 5 6 5 5 4 5 8 4 8 10 3 8 6 7 12 14 16 16 16 14 14 14 10 9 9 9 6 7 7 6 5 5 6 7 6 4 4 4 3 3 3 2 3 3 2 3 4 3
4 4 4 8 4 7 3 8 9 8 10 6 7 7 11 13 16 13 12 10 12 14 14 13 11 10 10 9 7 8 7 6 7 7 8 7 6 6 5 4 4 3 3 3 3 2 3 3 3
5 3 3 1 3 5 4 6 4 10 12 7 5 8 10 13 16 9 10 13 15 14 14 13 13 11 11 10 11 8 7 8 7 7 7 9 7 6 6 5 5 4 4 3 3 3 3 3 3
2 3 3 4 3 4 3 10 11 19 5 9 9 8 7 13 7 17 15 16 16 13 12 14 14 13 13 14 11 9 9 7 8 7 10 10 9 8 7 6 5 5 4 5 4 3 3 3 3
2 1 7 2 9 5 8 14 8 11 7 9 8 7 8 12 16 12 13 13 12 12 15 14 12 14 14 13 11 9 9 9 8 8 8 11 11 10 8 6 6 6 5 5 4 4 4 4 4
4 7 5 6 7 3 7 2 6 6 7 12 10 9 8 9 9 14 15 14 13 15 14 14 16 16 16 13 10 10 11 9 8 8 8 11 11 11 8 7 7 7 6 6 5 4 4 4 4
7 5 4 7 6 7 8 14 15 14 7 11 10 10 8 9 16 15 13 13 14 14 14 14 13 15 15 11 9 7 8 8 7 9 9 12 10 12 10 7 8 7 6 6 6 6 5 4 4
4 6 11 3 6 6 11 13 13 16 11 14 15 14 15 15 16 10 13 14 13 14 15 17 16 17 12 11 11 11 12 11 10 9 13 13 12 13 11 8 9 8 8 9 9 5 7 5 3
11 14 15 5 4 6 7 18 12 14 17 15 19 18 17 17 13 11 13 13 16 18 19 17 19 17 16 12 11 8 10 10 10 9 10 13 13 13 11 11 10 10 8 9 9 8 4 4 6
14 16 9 6 2 4 7 22 16 15 22 19 21 22 19 20 22 16 14 17 18 18 20 21 20 20 18 17 10 7 4 3 8 10 10 11 14 13 13 13 11 10 10 8 9 10 10 6 5
19 14 18 15 6 11 6 19 6 7 14 12 17 19 21 23 23 19 18 19 20 21 19 19 20 20 18 19 15 19 14 13 11 11 10 10 14 14 14 14 13 12 9 10 10 9 9 8 7
6 5 11 12 12 10 14 10 6 11 16 16 14 20 20 22 22 23 22 19 18 18 18 18 19 19 19 19 19 16 16 12 9 9 12 13 11 15 15 15 14 13 10 12 12 11 11 9 7
3 5 9 9 7 12 25 14 20 14 17 13 12 18 16 18 21 21 19 14 14 13 16 16 18 20 19 20 22 20 20 17 12 13 12 11 12 11 15 15 14 14 12 12 11 12 13 11 10
14 7 4 5 6 10 3 10 23 9 11 9 14 15 13 12 15 15 16 14 16 14 18 17 20 21 22 22 22 23 22 21 20 16 13 13 12 11 14 14 14 12 13 13 12 12 13 13 11
7 8 5 4 4 3 2 13 9 9 14 15 9 17 13 7 8 9 12 13 15 15 17 18 19 20 20 22 23 21 22 14 14 15 13 13 12 13 13 15 13 14 13 13 13 10 11 12 11
7 12 10 6 3 3 6 10 7 10 14 8 14 12 14 8 13 12 11 12 11 10 15 19 19 20 19 22 19 19 18 18 16 18 16 12 12 10 12 14 15 15 13 13 13 11 12 11 11
5 7 5 7 8 7 6 7 9 7 13 10 10 7 9 9 10 8 8 11 11 11 12 13 17 19 19 18 16 15 18 19 17 14 16 16 12 12 13 14 14 14 14 13 14 12 11 11 10
8 5 5 3 3 5 3 8 9 14 9 8 8 6 8 10 11 8 8 10 8 6 7 10 11 13 14 15 15 15 14 16 15 14 14 14 13 13 13 14 15 16 15 13 12 12 11 13 12
13 9 9 4 4 4 2 13 2 8 8 4 7 8 6 8 8 7 8 8 8 6 5 8 8 10 13 12 14 14 13 13 14 15 13 12 14 11 13 13 13 15 15 14 14 14 12 14 15
Wind_Direction
322 15 81 42 52 59 23 356 239 143 153 166 124 145 200 162 166 197 341 178 157 152 155 148 140 136 131 126 124 121 117 116 111 107 105 105 103 102 100 102 94 95 91 89 93 90 87 88 86
342 11 47 72 74 51 299 278 211 206 125 127 110 120 102 274 97 124 124 190 161 149 146 144 144 136 137 130 127 124 124 130 124 110 102 103 102 103 106 110 108 99 100 98 98 92 91 88 86
76 30 72 81 96 139 244 242 212 81 147 126 118 52 139 252 189 170 176 150 149 145 144 145 142 140 138 137 133 128 132 131 144 120 114 108 107 106 111 115 118 103 99 100 98 94 91 91 90
29 15 47 74 15 265 221 254 149 130 271 227 77 161 242 197 176 182 151 146 147 150 150 152 151 143 140 139 136 133 138 145 139 129 123 113 111 114 115 119 120 104 98 94 98 96 95 95 91
37 48 60 79 319 277 275 277 148 159 193 129 166 251 251 116 96 134 152 150 156 154 157 154 151 143 143 140 139 143 137 136 128 118 115 124 124 121 122 121 120 110 98 101 103 101 99 97 97
51 72 47 15 302 283 307 167 135 169 95 153 217 165 257 337 138 156 156 158 164 154 158 155 151 144 141 141 142 141 143 153 122 114 124 127 131 122 124 127 125 113 112 106 102 109 104 100 98
112 86 144 219 254 308 35 324 341 190 167 252 147 169 274 237 167 153 154 156 157 156 157 161 153 154 142 144 144 145 161 158 147 131 133 131 126 132 119 121 134 129 125 110 103 105 111 107 99
95 102 84 253 219 282 359 340 350 278 267 26 166 222 274 185 141 129 138 153 156 167 166 162 160 159 155 157 146 146 155 147 166 134 129 138 130 121 121 113 126 129 125 119 107 99 110 111 100
355 78 159 191 182 265 356 30 342 289 286 293 245 189 343 131 126 129 148 175 179 181 182 174 167 166 161 161 161 148 151 130 126 123 121 118 128 129 132 123 110 112 116 124 112 100 90 89 95
111 149 206 181 173 199 231 118 335 7 339 268 295 205 91 157 152 165 178 187 199 196 196 188 178 174 165 165 159 163 155 151 153 149 150 142 141 139 132 121 115 116 123 119 117 99 94 102 112
140 185 184 268 195 172 169 160 166 200 290 242 265 333 155 187 178 180 191 192 193 201 198 194 182 177 171 167 169 164 172 160 162 163 158 152 145 145 150 132 138 135 109 112 109 110 106 127 136
164 239 179 236 232 180 214 149 204 176 235 251 265 245 180 196 199 195 198 196 185 195 201 193 186 178 174 163 178 176 177 177 174 179 163 160 162 170 171 172 168 158 154 149 137 121 129 138 136
169 232 207 252 252 248 62 226 207 210 239 250 274 202 211 205 214 215 210 192 183 193 203 189 183 182 181 172 185 188 181 192 182 182 178 177 177 180 181 186 180 177 173 183 163 164 161 168 172
188 225 230 254 214 263 256 273 132 249 225 221 211 227 230 223 216 212 196 198 195 197 197 183 190 184 186 188 191 194 188 192 191 187 192 189 187 184 192 188 194 190 194 183 187 190 183 198 211
165 269 288 235 212 218 198 273 218 249 210 243 226 228 231 235 208 218 215 208 201 201 189 189 187 185 184 194 196 201 196 185 197 196 195 196 194 196 195 195 200 201 194 190 195 194 193 201 216
196 189 248 207 179 237 153 265 271 256 186 244 255 253 225 234 229 231 224 217 200 195 191 190 189 191 189 192 198 201 201 196 197 192 197 201 201 200 203 203 208 197 192 198 202 197 207 221 223
184 255 242 294 188 133 181 263 276 278 228 250 239 236 233 241 232 226 220 211 198 197 195 193 190 192 194 194 193 203 203 202 199 192 202 206 205 204 206 210 215 197 194 201 204 203 212 218 222
218 226 214 214 221 194 220 239 270 272 265 260 271 258 235 228 237 237 216 207 207 198 197 196 194 196 194 192 187 195 202 205 200 202 204 205 206 204 205 210 214 197 197 207 205 209 207 226 232
283 237 238 218 221 214 239 250 244 265 265 256 254 249 251 235 239 216 211 205 196 199 197 196 191 197 185 189 192 203 210 211 211 210 209 205 206 202 204 209 209 197 204 209 204 198 213 224 209
228 249 262 263 210 202 279 267 245 260 257 247 260 256 248 250 235 217 208 196 202 202 205 202 203 194 193 194 197 203 196 214 212 208 209 209 206 203 202 206 206 201 203 206 198 192 189 222 190
236 240 250 262 322 250 294 280 265 248 251 249 245 247 249 237 244 229 206 201 204 204 205 205 201 198 197 197 187 188 163 192 199 207 209 210 206 204 201 208 207 200 201 206 202 199 200 212 198
234 221 241 258 272 264 136 284 250 272 270 235 240 244 244 240 242 236 216 206 204 207 209 209 203 199 199 191 190 195 204 207 209 208 209 205 204 204 203 207 205 202 200 207 204 198 203 202 212
236 160 222 228 238 264 241 267 299 216 250 260 238 248 239 239 240 242 236 219 203 202 205 203 203 200 197 193 199 198 207 214 204 201 200 201 204 207 207 207 203 204 203 210 204 194 202 202 209
107 234 272 264 261 226 242 220 267 238 244 255 253 251 250 239 236 237 238 226 219 206 200 203 200 203 197 196 201 202 206 208 202 202 202 206 213 209 213 209 207 207 207 205 203 203 204 205 208
191 194 238 231 202 250 209 207 246 299 284 232 248 261 250 248 243 240 230 217 223 196 195 197 197 204 199 198 199 205 207 206 209 202 201 198 206 213 215 205 207 209 210 206 202 203 206 205 205
200 205 218 207 213 286 34 229 260 240 252 260 268 258 277 259 246 243 247 235 227 211 202 199 199 207 199 200 204 206 209 207 210 205 204 210 208 211 206 210 211 212 207 208 205 206 211 209 210
179 220 220 273 159 243 216 284 270 245 271 284 252 257 268 274 261 241 240 232 231 226 210 202 201 206 201 204 203 205 207 204 204 206 209 209 207 208 199 198 206 213 213 209 207 213 211 206 207
183 134 162 199 245 241 251 255 238 299 278 280 297 297 300 296 291 286 269 254 238 226 224 207 208 206 204 201 201 205 204 202 205 202 205 208 206 195 190 196 204 207 211 209 210 217 213 205 208
167 189 190 183 188 222 289 252 207 224 247 245 285 308 297 298 303 319 288 274 254 220 216 220 211 207 201 198 198 198 203 205 203 204 204 202 198 193 193 195 201 207 212 209 209 214 209 207 211
211 186 206 234 202 226 206 263 355 239 232 264 291 304 305 291 305 310 305 305 279 254 238 226 218 202 205 194 191 196 196 198 200 206 202 196 201 194 197 196 200 206 211 210 204 207 206 206 214